Regional Weather Roundup
Issued by NWS Wakefield, VA

Home | Current Version | Previous Version | Graphics & Text | Print | Product List | Glossary On
Versions: 1 2 3 4 5 6 7 8 9 10 11 12 13 14 15 16 17 18 19 20 21 22 23 24 25 26 27 28 29 30 31 32 33 34 35 36 37 38 39 40 41 42 43 44 45 46 47 48 49 50
000
ASUS41 KAKQ 070415
RWRAKQ

REGIONAL WEATHER ROUNDUP
NATIONAL WEATHER SERVICE WAKEFIELD VA
1200 AM EDT THU MAY 07 2015

Note: "fair" indicates few or no clouds below 12,000 feet with no
significant weather and/or obstructions to visibility. * = Denotes
station may not report precipitation (e.g., rain,snow,etc.),
thunder or fog.

VAZ042-051-052>054-056-070500-
NORTHERN VIRGINIA

CITY           SKY/WX    TMP DP  RH WIND       PRES   REMARKS
WASH NATIONAL  MOCLDY    68  55  63 SE6       30.21F
DULLES         MOCLDY    65  62  90 E3        30.20S
FORT BELVOIR   MOCLDY    66  57  72 SE2       30.20F
QUANTICO       MOCLDY    68  58  70 NE8       30.21S
FREDERICKSBRG* MOCLDY    71  62  74 N3        30.19S
STAFFORD*      MOCLDY    66  32  28 CALM      30.23F
WARRENTON      MOCLDY    64  64  98 CALM      30.19F
CULPEPER*      MOCLDY    60  60  99 CALM      30.20F FOG
MANASSAS*      MOCLDY    64  64 100 SE8       30.19F
LEESBURG*      CLOUDY    68  68 100 S6        30.21F
WINCHESTER     CLOUDY    64  59  82 W6        30.20S
FRONT ROYAL*   CLOUDY    63  61  94 CALM      30.19F
LURAY*         FAIR      63  63 100 CALM      30.21F
$$

VAZ048-049-060>072-079>083-070500-
CENTRAL AND SOUTH CENTRAL VIRGINIA

CITY           SKY/WX    TMP DP  RH WIND       PRES   REMARKS
RICHMOND       CLOUDY    69  58  67 CALM      30.17S
CHESTERFIELD*  FAIR      64  50  59 CALM      30.18F
PETERSBURG*    MOCLDY    62  58  87 CALM      30.18S
HANOVER        MOCLDY    63  60  90 CALM      30.20R
TAPPAHANNOCK*  MOCLDY    62  55  78 CALM      30.19R
QUINTON*       FAIR      66  59  79 CALM      30.17S
CHARLOTTSVILLE CLOUDY    64  61  90 CALM      30.21S
GORDONSVILLE*  FAIR      62  62  98 CALM      30.20F FOG
ORANGE*        CLOUDY    64  61  88 N3        30.21F
LOUISA*        CLOUDY    66  63  88 N3        30.20S
BUMPASS*       FAIR      67  61  80 NW3       30.19S
FARMVILLE*     CLOUDY    68  61  78 CALM      30.17F
CREWE*         FAIR      63  58  86 NW3       30.18R
FORT PICKETT*  FAIR     N/A N/A N/A SE6       30.17S
CHASE CITY*    FAIR      65  62  90 CALM      30.17S
CLARKSVILLE*   FAIR      64  59  82 CALM      30.17R
SOUTH HILL*    MOCLDY    61  57  88 CALM      30.23R
LAWRENCEVILLE* FAIR      64  58  80 CALM      30.17S
EMPORIA*       CLOUDY    61  57  88 CALM      30.19R
$$

VAZ088>098-070500-
SOUTHEAST VIRGINIA

CITY           SKY/WX    TMP DP  RH WIND       PRES   REMARKS
NORFOLK        MOCLDY    66  56  70 S5        30.18S
VIRGINIA BEACH CLOUDY    66  55  67 SE5       30.18S
NORFOLK NAVAL  CLOUDY    70  57  63 S3        30.19F
WEST POINT*    MOCLDY    65  58  79 E3        30.19S
SALUDA*        FAIR      63  58  83 SE6       30.18R
NEWPORT NEWS   MOCLDY    69  58  67 S3        30.18S
LANGLEY AFB    MOCLDY    66  59  78 S7        30.16F
FORT EUSTIS    CLOUDY    66  60  81 S6        30.16S
WILLIAMSBURG*  MOCLDY    70  59  68 S6        30.18F
HR EXEC AP*    FAIR      57  54  88 CALM      30.19F
FRANKLIN*      CLOUDY    63  57  82 CALM      30.18S
WAKEFIELD      CLOUDY    65  57  75 CALM      30.18R
$$

VAZ020-022-025-037-045-070500-
WEST CENTRAL AND SOUTHWEST VIRGINIA

CITY           SKY/WX    TMP DP  RH WIND       PRES   REMARKS
STAUNTON*      HVY RAIN  65  61  87 N6        30.26R
WAYNESBORO*    CLOUDY    66  60  79 NW8       30.24R
HOT SPRINGS VA MOCLDY    62  52  69 SE6       30.27S
LYNCHBURG      MOCLDY    67  60  78 NE8       30.21R
DANVILLE       MOCLDY    63  57  81 CALM      30.17R
SOUTH BOSTON*  FAIR      63  58  86 MISG      30.17S
MARTINSVILLE   MOCLDY    64  64 100 CALM      30.20S
ROANOKE        PTCLDY    61  60  97 N7        30.21S
BLACKSBURG     CLOUDY    59  56  88 CALM      30.25R
DUBLIN*        MOCLDY    63  60  90 CALM      30.24R
MARION*        PTCLDY    57  55  95 CALM      30.25F FOG
HILLSVILLE*    PTCLDY    60  53  77 W3        30.24S
RICHLANDS*     FAIR      64  53  66 CALM      30.23S
WISE*          MOCLDY    64  50  59 NE3       30.23S
ABINGDON*      CLEAR     62  56  81 E3        30.20S
$$

MDZ021>025-VAZ099-100-070500-
SOUTHERN MARYLAND AND THE DELMARVA PENINSULA

CITY           SKY/WX    TMP DP  RH WIND       PRES   REMARKS
PATUXENT RIVER PTCLDY    60  56  86 E7        30.21R
BAY BRIDGE APT   N/A    N/A N/A N/A SE9       30.21F
LEONARDTOWN    PTCLDY    61  55  82 E5        30.22S
DOVER          MOCLDY    58  57  95 SE5       30.19S
GEORGETOWN     MOCLDY    55  51  86 E5        30.23S
EASTON         MOCLDY    60  53  75 SE5       30.26R
CAMBRIDGE      PTCLDY    59  52  77 E6        30.21S
SALISBURY      MOCLDY    54  51  90 E3        30.21F
OCEAN CITY     CLOUDY    55  51  86 NE6       30.22S
WALLOPS ISLAND MOCLDY    57  56  96 E7        30.22S
ACCOMACK*      MOCLDY    57  55  94 E5        30.20S
$$

NCZ012>017-030>032-070500-
NORTH CENTRAL AND EASTERN NORTH CAROLINA

CITY           SKY/WX    TMP DP  RH WIND       PRES   REMARKS
ROANOKE RAPIDS FAIR      61  57  88 CALM      30.17F
RALEIGH        CLOUDY    66  53  63 SE7       30.17S
ELIZABETH CITY CLOUDY    63  58  83 E5        30.18S
AHOSKIE*       CLOUDY    60  57  91 CALM      30.18S
EDENTON*       CLOUDY    62  59  91 E5        30.17F
CURRITUCK*     CLOUDY    62  57  83 CALM      30.19S
KILL DEVIL HLS CLOUDY    61  59  93 E5        30.16F
MANTEO         CLOUDY    64  62  91 E7        30.17F
CAPE HATTERAS  CLOUDY    64  56  75 E6        30.15S
TARBORO*       FAIR      59  57  94 CALM      30.18S
GOLDSBORO      CLOUDY    61  56  83 CALM      30.14F
WASHINGTON     CLOUDY    60  57  90 NE3       30.16F
GREENVILLE     CLOUDY    59  59 100 CALM      30.18S
NEW BERN       CLOUDY    64  59  83 NE8       30.16R
WILMINGTON     CLOUDY    65  58  78 NE7       30.11F
$$

VAZ048-070500-
ELSEWHERE

CITY           SKY/WX    TMP DP  RH WIND       PRES   REMARKS
HARRISBURG PA  MOCLDY    59  54  83 CALM      30.22S
BALTIMORE      MOCLDY    64  51  62 E6        30.21S
ANNAPOLIS      PTCLDY    64  54  69 SE9       30.21S
ANDREWS AFB    PTCLDY    62  55  79 E3        30.20F
PHILADELPHIA   PTCLDY    60  51  72 CALM      30.24R
HENDERSON NC   MOCLDY    65  55  70 CALM      30.18R
GREENSBORO     MOCLDY    67  54  63 S5        30.16S
ROCKY MOUNT    CLOUDY    60  56  86 CALM      30.17S
$$

VAZ100-070500-
MARINE

STATION/POSITION TIME  TEMP    WIND        PRES    WAVE   SWELL
                       AIR SEA DIR/SP/G            HT/PER HT/PER
                 (UTC) (F)     (DEG/KT/KT) (MB)    (FT/S) (FT/S)
BRANDYWINE LGT   0300   56 56  120/  6/  7 1023.7R
CAPE MAY NJ      0300   56 64   80/  6/  8 1023.3R
LEWES DE         0300   55 58  110/  6/  8 1023.4F
15NM E FENWICK I 0350   54 54              1023.1R   2/10
OCEAN-CITY-INLET 0300   54 53   70/  4/  5 1023.0F
WACHAPREAGUE VA  0300   60 70   60/  8/ 10 1022.8R
THOMAS POINT MD  0400   63 62  120/  6/  6 1023.6R
GOOSES REEF MD   0400   63 64                N/A     1/ 2
COVE POINT MD    0300   62     120/  8/ 10 1023.3R
SOLOMONS ISLAND  0300      63                N/A
BISHOPS HEAD MD  0300   62 71   70/  9/ 12 1022.5R
PINEY POINT MD   0300          100/ 11/ 13   N/A
CAMBRIDGE MD     0300   60 65   90/  9/ 11 1022.7F
LEWISETTA VA     0300   66 67              1022.0R
RAPPAHANNOCK LGT 0300          140/ 10/ 11 1022.5S
YORK RVR RNG VA  0300   66     160/ 11/ 11 1021.3F
YORKTOWN VA      0300   68 64  180/  4/  6 1021.6S
JAMESTOWN VA     0400   67 68  140/  4/  6 1020.9S
DOMINION TERM VA 0300   67     160/  6/  7 1022.0R
KIPTOPEKE VA     0300      68  150/  8/  9   N/A
CHES BAY BRIDGE  0300   66 58  100/  3/  5 1021.8S
CAPE HENRY VA    0300   63     140/  6/  7 1021.1R
CHESAPEAKE LGHT  0300   63     130/ 11/ 11 1022.9F
WILLOUBY STN VA  0300   68     150/  7/  8 1022.6R
S CRANEY ISL VA  0300          220/  1/  2 1022.0R
CAPE HENRY BUOY  0328      63                N/A     2/10
1ST LANDING BUOY 0400      62                N/A     1
CAPE CHARLES BUO 0326      62                N/A     2/10   2/10
OFFSHORE WE BUOY 0311      63                N/A     2/ 8   2/ 8
64NM E OF VA BCH 0350   63 60   60/  6/  6 1021.9S   2/ 8   2/ 8
DUCK PIER NC     0300   61 51   70/  9/  9 1021.0S
44100 DUCK FRF   0324      61                N/A     2/ 7
44056 DUCK FRF   0311      56                N/A     2/ 8
OREGON INLET NC  0300   65 71   40/  7/  8 1021.5F
HATTERAS NC      0300   69 69   90/  5/  8 1020.3F
DIAMOND SHLS NC  0350   71 75  100/ 17/ 21 1020.3F   6/ 7   2/ 8
CAPE LOOKOUT NC  0400   69      80/ 13/ 14 1019.6F
$$



USA.gov is the U.S. government's official web portal to all federal, state and local government web resources and services.